| time (UTC) | temp F | wind direction | speed MPH | gust MPH | rain 1hr in | rain 24hr in | rain mn in | humidity % | barometer mb |
| 20260505065147 | 87 | 310 | 0.0 | 0.0 | 0.00 | 0.00 | 0.00 | 63 | 1008.4 |
| 20260505064644 | 86 | 250 | 0.0 | 0.0 | 0.00 | 0.00 | 0.00 | 64 | 1008.4 |
| 20260505064142 | 86 | 320 | 0.0 | 0.0 | 0.00 | 0.00 | 0.00 | 65 | 1008.8 |
| 20260505063639 | 86 | 339 | 0.0 | 0.0 | 0.00 | 0.00 | 0.00 | 65 | 1008.9 |
| 20260505063136 | 86 | 351 | 0.0 | 0.0 | 0.00 | 0.00 | 0.00 | 64 | 1008.9 |
| 20260505062632 | 85 | 306 | 2.0 | 3.0 | 0.00 | 0.00 | 0.00 | 65 | 1008.9 |
| 20260505062129 | 87 | 334 | 0.0 | 0.0 | 0.00 | 0.00 | 0.00 | 65 | 1008.8 |
| 20260505061626 | 87 | 256 | 0.0 | 0.0 | 0.00 | 0.00 | 0.00 | 63 | 1009.0 |
| 20260505061125 | 87 | 267 | 0.0 | 0.0 | 0.00 | 0.00 | 0.00 | 63 | 1008.7 |
| 20260505060622 | 86 | 324 | 0.0 | 0.0 | 0.00 | 0.00 | 0.00 | 65 | 1008.9 |
| 20260505060118 | 85 | 349 | 0.0 | 0.0 | 0.00 | 0.00 | 0.00 | 65 | 1008.9 |
| 20260505055614 | 86 | 276 | 0.0 | 0.0 | 0.00 | 0.00 | 0.00 | 63 | 1009.0 |
| 20260505055110 | 87 | 311 | 0.0 | 0.0 | 0.00 | 0.00 | 0.00 | 61 | 1009.0 |
| 20260505054608 | 86 | 339 | 0.0 | 0.0 | 0.00 | 0.00 | 0.00 | 62 | 1009.2 |
| 20260505054106 | 86 | 322 | 0.0 | 0.0 | 0.00 | 0.00 | 0.00 | 65 | 1009.1 |
| 20260505053603 | 85 | 280 | 1.0 | 2.0 | 0.00 | 0.00 | 0.00 | 67 | 1009.3 |
| 20260505053059 | 84 | 3 | 0.0 | 0.0 | 0.00 | 0.00 | 0.00 | 69 | 1009.3 |
| 20260505052556 | 84 | 2 | 0.0 | 0.0 | 0.00 | 0.00 | 0.00 | 69 | 1009.2 |
| 20260505052054 | 84 | 309 | 0.0 | 0.0 | 0.00 | 0.00 | 0.00 | 70 | 1009.4 |
| 20260505051550 | 84 | 31 | 0.0 | 1.0 | 0.00 | 0.00 | 0.00 | 69 | 1009.2 |
| 20260505051048 | 85 | 284 | 0.0 | 0.0 | 0.00 | 0.00 | 0.00 | 69 | 1009.6 |
| 20260505050546 | 85 | 310 | 0.0 | 0.0 | 0.00 | 0.00 | 0.00 | 69 | 1009.4 |
| 20260505041514 | 82 | 324 | 0.0 | 0.0 | 0.00 | 0.00 | 0.00 | 72 | 1009.6 |
| 20260505041012 | 81 | 30 | 0.0 | 0.0 | 0.00 | 0.00 | 0.00 | 74 | 1009.6 |
| 20260505040509 | 80 | 247 | 0.0 | 1.0 | 0.00 | 0.00 | 0.00 | 75 | 1009.6 |
| 20260505040006 | 81 | 339 | 0.0 | 0.0 | 0.00 | 0.00 | 0.00 | 74 | 1009.9 |
| 20260505035501 | 80 | 277 | 0.0 | 0.0 | 0.00 | 0.00 | 0.00 | 75 | 1009.9 |
| 20260505034959 | 79 | 344 | 0.0 | 0.0 | 0.00 | 0.00 | 0.00 | 76 | 1009.5 |
| 20260505034455 | 80 | 340 | 2.0 | 3.0 | 0.00 | 0.00 | 0.00 | 75 | 1010.0 |
| 20260505033952 | 80 | 80 | 2.0 | 3.0 | 0.00 | 0.00 | 0.00 | 74 | 1009.7 |
| 20260505033449 | 80 | 286 | 1.0 | 2.0 | 0.00 | 0.00 | 0.00 | 74 | 1009.6 |
| 20260505032947 | 80 | 69 | 0.0 | 0.0 | 0.00 | 0.00 | 0.00 | 75 | 1009.5 |
| 20260505032444 | 80 | 345 | 0.0 | 0.0 | 0.00 | 0.00 | 0.00 | 75 | 1009.6 |
| 20260505031940 | 80 | 268 | 0.0 | 0.0 | 0.00 | 0.00 | 0.00 | 75 | 1009.4 |
| 20260505031438 | 80 | 258 | 0.0 | 0.0 | 0.00 | 0.00 | 0.00 | 75 | 1009.5 |
| 20260505030934 | 79 | 329 | 0.0 | 0.0 | 0.00 | 0.00 | 0.00 | 75 | 1009.3 |
| 20260505030430 | 78 | 232 | 0.0 | 1.0 | 0.00 | 0.00 | 0.00 | 75 | 1009.5 |
| 20260505025926 | 78 | 341 | 0.0 | 0.0 | 0.00 | 0.00 | 0.00 | 76 | 1009.6 |
| 20260505025423 | 78 | 266 | 0.0 | 0.0 | 0.00 | 0.00 | 0.00 | 76 | 1009.9 |
| 20260505024922 | 77 | 281 | 0.0 | 0.0 | 0.00 | 0.00 | 0.00 | 77 | 1009.7 |
| 20260505024419 | 77 | 257 | 1.0 | 2.0 | 0.00 | 0.00 | 0.00 | 77 | 1009.9 |
| 20260505023916 | 76 | 286 | 0.0 | 0.0 | 0.00 | 0.00 | 0.00 | 78 | 1009.6 |
| 20260505023413 | 76 | 280 | 0.0 | 0.0 | 0.00 | 0.00 | 0.00 | 77 | 1009.9 |
| 20260505022910 | 76 | 314 | 0.0 | 0.0 | 0.00 | 0.00 | 0.00 | 77 | 1009.6 |
| 20260505022408 | 76 | 341 | 0.0 | 0.0 | 0.00 | 0.00 | 0.00 | 77 | 1009.5 |
| 20260505021905 | 76 | 278 | 0.0 | 0.0 | 0.00 | 0.00 | 0.00 | 77 | 1009.5 |
| 20260505021401 | 76 | 341 | 0.0 | 0.0 | 0.00 | 0.00 | 0.00 | 79 | 1009.5 |
| 20260505020857 | 75 | 319 | 0.0 | 0.0 | 0.00 | 0.00 | 0.00 | 79 | 1009.5 |
| 20260505020353 | 74 | 247 | 0.0 | 1.0 | 0.00 | 0.00 | 0.00 | 80 | 1009.5 |
| 20260505015850 | 74 | 321 | 0.0 | 0.0 | 0.00 | 0.00 | 0.00 | 82 | 1009.6 |
| 20260505015347 | 74 | 328 | 0.0 | 0.0 | 0.00 | 0.00 | 0.00 | 83 | 1009.5 |
| 20260505014844 | 73 | 295 | 0.0 | 0.0 | 0.00 | 0.00 | 0.00 | 84 | 1009.4 |
| 20260505014341 | 73 | 273 | 0.0 | 0.0 | 0.00 | 0.00 | 0.00 | 84 | 1009.4 |
| 20260505013837 | 73 | 310 | 0.0 | 0.0 | 0.00 | 0.00 | 0.00 | 84 | 1009.5 |
| 20260505013335 | 73 | 294 | 0.0 | 0.0 | 0.00 | 0.00 | 0.00 | 84 | 1009.5 |
| 20260505012833 | 73 | 277 | 0.0 | 0.0 | 0.00 | 0.00 | 0.00 | 84 | 1009.4 |
| 20260505012331 | 73 | 258 | 0.0 | 0.0 | 0.00 | 0.00 | 0.00 | 84 | 1009.5 |
| 20260505011826 | 73 | 289 | 0.0 | 0.0 | 0.00 | 0.00 | 0.00 | 84 | 1009.4 |
| 20260505011323 | 73 | 317 | 0.0 | 0.0 | 0.00 | 0.00 | 0.00 | 84 | 1009.2 |
| 20260505010819 | 73 | 316 | 0.0 | 0.0 | 0.00 | 0.00 | 0.00 | 83 | 1008.9 |
| 20260505010315 | 73 | 343 | 0.0 | 0.0 | 0.00 | 0.00 | 0.00 | 83 | 1009.0 |
| 20260505005812 | 73 | 315 | 0.0 | 0.0 | 0.00 | 0.00 | 0.00 | 83 | 1009.1 |
| 20260505005309 | 73 | 309 | 0.0 | 0.0 | 0.00 | 0.00 | 0.00 | 83 | 1008.8 |
| 20260505004806 | 73 | 315 | 0.0 | 0.0 | 0.00 | 0.00 | 0.00 | 83 | 1008.7 |
| 20260505004302 | 73 | 315 | 0.0 | 0.0 | 0.00 | 0.00 | 0.00 | 83 | 1008.9 |
| 20260505003800 | 73 | 313 | 0.0 | 0.0 | 0.00 | 0.00 | 0.00 | 83 | 1008.9 |
| 20260505003257 | 73 | 325 | 0.0 | 0.0 | 0.00 | 0.00 | 0.00 | 82 | 1008.9 |
| 20260505002753 | 73 | 318 | 0.0 | 0.0 | 0.00 | 0.00 | 0.00 | 82 | 1009.0 |
| 20260505002251 | 73 | 309 | 0.0 | 0.0 | 0.00 | 0.00 | 0.00 | 82 | 1008.5 |
| 20260505001748 | 73 | 319 | 0.0 | 0.0 | 0.00 | 0.00 | 0.00 | 82 | 1008.9 |
| 20260505001246 | 73 | 345 | 0.0 | 0.0 | 0.00 | 0.00 | 0.00 | 81 | 1008.9 |
| 20260505000742 | 73 | 320 | 0.0 | 0.0 | 0.00 | 0.00 | 0.00 | 82 | 1008.9 |
| 20260505000240 | 73 | 312 | 0.0 | 0.0 | 0.00 | 0.00 | 0.00 | 81 | 1008.9 |
| 20260504235736 | 73 | 70 | 0.0 | 0.0 | 0.00 | 0.00 | 0.00 | 81 | 1008.8 |
| 20260504235233 | 73 | 319 | 0.0 | 0.0 | 0.00 | 0.00 | 0.00 | 81 | 1009.0 |
| 20260504234730 | 73 | 349 | 0.0 | 0.0 | 0.00 | 0.00 | 0.00 | 81 | 1008.8 |
| 20260504234227 | 73 | 326 | 0.0 | 0.0 | 0.00 | 0.00 | 0.00 | 81 | 1008.8 |
| 20260504233724 | 73 | 315 | 0.0 | 0.0 | 0.00 | 0.00 | 0.00 | 81 | 1008.7 |
| 20260504233219 | 73 | 124 | 0.0 | 0.0 | 0.00 | 0.00 | 0.00 | 81 | 1008.8 |
| 20260504232717 | 73 | 31 | 0.0 | 0.0 | 0.00 | 0.00 | 0.00 | 81 | 1008.4 |
| 20260504232214 | 73 | 14 | 0.0 | 0.0 | 0.00 | 0.00 | 0.00 | 80 | 1008.7 |
| 20260504231710 | 73 | 322 | 0.0 | 0.0 | 0.00 | 0.00 | 0.00 | 80 | 1008.5 |
| 20260504231207 | 73 | 158 | 0.0 | 0.0 | 0.00 | 0.00 | 0.00 | 80 | 1008.3 |
| 20260504230703 | 73 | 74 | 0.0 | 0.0 | 0.00 | 0.00 | 0.00 | 80 | 1008.3 |
| 20260504230202 | 73 | 192 | 0.0 | 0.0 | 0.00 | 0.00 | 0.00 | 80 | 1008.1 |
| 20260504225700 | 73 | 65 | 0.0 | 0.0 | 0.00 | 0.00 | 0.00 | 80 | 1008.3 |
| 20260504225155 | 73 | 177 | 0.0 | 1.0 | 0.00 | 0.00 | 0.00 | 80 | 1007.9 |
| 20260504224653 | 73 | 130 | 0.0 | 0.0 | 0.00 | 0.00 | 0.00 | 80 | 1008.2 |
| 20260504224149 | 73 | 148 | 0.0 | 0.0 | 0.00 | 0.00 | 0.00 | 81 | 1008.0 |
| 20260504223647 | 73 | 359 | 0.0 | 0.0 | 0.00 | 0.00 | 0.00 | 81 | 1008.1 |
| 20260504223142 | 73 | 347 | 0.0 | 0.0 | 0.00 | 0.00 | 0.00 | 81 | 1007.9 |
| 20260504222639 | 73 | 341 | 0.0 | 0.0 | 0.00 | 0.00 | 0.00 | 81 | 1007.9 |
| 20260504222136 | 73 | 48 | 0.0 | 0.0 | 0.00 | 0.00 | 0.00 | 82 | 1007.8 |
| 20260504221634 | 73 | 322 | 0.0 | 0.0 | 0.00 | 0.00 | 0.00 | 82 | 1007.7 |
| 20260504221131 | 73 | 99 | 0.0 | 0.0 | 0.00 | 0.00 | 0.00 | 82 | 1007.7 |
| 20260504220627 | 73 | 312 | 0.0 | 0.0 | 0.00 | 0.00 | 0.00 | 82 | 1007.8 |
| 20260504220125 | 73 | 312 | 0.0 | 0.0 | 0.00 | 0.00 | 0.00 | 82 | 1007.9 |
| 20260504215621 | 73 | 320 | 0.0 | 0.0 | 0.00 | 0.00 | 0.00 | 83 | 1007.8 |
| 20260504215118 | 73 | 257 | 0.0 | 0.0 | 0.00 | 0.00 | 0.00 | 82 | 1008.2 |
| 20260504214614 | 73 | 334 | 0.0 | 0.0 | 0.00 | 0.00 | 0.00 | 82 | 1008.2 |
| 20260504214110 | 73 | 328 | 0.0 | 0.0 | 0.00 | 0.00 | 0.00 | 82 | 1007.8 |
| 20260504213607 | 73 | 143 | 0.0 | 0.0 | 0.00 | 0.00 | 0.00 | 81 | 1008.0 |
| 20260504213104 | 73 | 16 | 0.0 | 0.0 | 0.00 | 0.00 | 0.00 | 81 | 1008.1 |
| 20260504212600 | 74 | 272 | 0.0 | 0.0 | 0.00 | 0.00 | 0.00 | 81 | 1007.9 |
| 20260504212057 | 74 | 309 | 0.0 | 0.0 | 0.00 | 0.00 | 0.00 | 81 | 1007.8 |
| 20260504211554 | 74 | 290 | 0.0 | 0.0 | 0.00 | 0.00 | 0.00 | 80 | 1007.9 |
| 20260504211051 | 74 | 307 | 0.0 | 0.0 | 0.00 | 0.00 | 0.00 | 81 | 1008.0 |
| 20260504210548 | 74 | 322 | 0.0 | 0.0 | 0.00 | 0.00 | 0.00 | 81 | 1008.1 |
| 20260504210045 | 74 | 308 | 0.0 | 0.0 | 0.00 | 0.00 | 0.00 | 80 | 1007.9 |
| 20260504205543 | 74 | 319 | 0.0 | 0.0 | 0.00 | 0.00 | 0.00 | 81 | 1008.0 |
| 20260504205040 | 74 | 320 | 0.0 | 0.0 | 0.00 | 0.00 | 0.00 | 81 | 1007.6 |
| 20260504204538 | 74 | 338 | 0.0 | 0.0 | 0.00 | 0.00 | 0.00 | 81 | 1007.8 |
| 20260504204037 | 74 | 274 | 0.0 | 0.0 | 0.00 | 0.00 | 0.00 | 80 | 1008.0 |
| 20260504203535 | 74 | 321 | 0.0 | 0.0 | 0.00 | 0.00 | 0.00 | 80 | 1007.8 |
| 20260504203032 | 74 | 281 | 0.0 | 0.0 | 0.00 | 0.00 | 0.00 | 80 | 1007.8 |
| 20260504202527 | 74 | 232 | 1.0 | 2.0 | 0.00 | 0.00 | 0.00 | 79 | 1007.7 |
| 20260504202024 | 74 | 337 | 0.0 | 0.0 | 0.00 | 0.00 | 0.00 | 79 | 1007.6 |
| 20260504201521 | 74 | 256 | 0.0 | 0.0 | 0.00 | 0.00 | 0.00 | 79 | 1007.6 |
| 20260504201019 | 74 | 329 | 0.0 | 0.0 | 0.00 | 0.00 | 0.00 | 79 | 1007.5 |
| 20260504200515 | 75 | 292 | 0.0 | 0.0 | 0.00 | 0.00 | 0.00 | 78 | 1007.3 |
| 20260504200012 | 75 | 243 | 0.0 | 0.0 | 0.00 | 0.00 | 0.00 | 78 | 1007.5 |
| 20260504195508 | 75 | 289 | 0.0 | 0.0 | 0.00 | 0.00 | 0.00 | 78 | 1007.3 |
| 20260504195005 | 74 | 311 | 0.0 | 0.0 | 0.00 | 0.00 | 0.00 | 78 | 1007.5 |
| 20260504194501 | 74 | 301 | 0.0 | 0.0 | 0.00 | 0.00 | 0.00 | 78 | 1007.8 |
| 20260504193957 | 74 | 311 | 0.0 | 0.0 | 0.00 | 0.00 | 0.00 | 78 | 1007.9 |
| 20260504193454 | 74 | 338 | 0.0 | 0.0 | 0.00 | 0.00 | 0.00 | 78 | 1007.9 |
| 20260504192953 | 74 | 314 | 0.0 | 0.0 | 0.00 | 0.00 | 0.00 | 78 | 1007.9 |
| 20260504192449 | 74 | 317 | 0.0 | 0.0 | 0.00 | 0.00 | 0.00 | 79 | 1007.9 |
| 20260504191949 | 74 | 292 | 0.0 | 0.0 | 0.00 | 0.00 | 0.00 | 79 | 1007.6 |
| 20260504191446 | 74 | 305 | 0.0 | 0.0 | 0.00 | 0.00 | 0.00 | 79 | 1008.0 |
| 20260504190941 | 74 | 295 | 0.0 | 0.0 | 0.00 | 0.00 | 0.00 | 79 | 1007.9 |
| 20260504190437 | 74 | 304 | 0.0 | 0.0 | 0.00 | 0.00 | 0.00 | 79 | 1008.1 |
| 20260504185934 | 74 | 326 | 0.0 | 0.0 | 0.00 | 0.00 | 0.00 | 79 | 1008.0 |
| 20260504185432 | 74 | 318 | 0.0 | 0.0 | 0.00 | 0.00 | 0.00 | 79 | 1007.9 |
| 20260504184927 | 74 | 341 | 0.0 | 0.0 | 0.00 | 0.00 | 0.00 | 79 | 1008.0 |
| 20260504184423 | 74 | 30 | 0.0 | 0.0 | 0.00 | 0.00 | 0.00 | 79 | 1008.2 |
| 20260504183919 | 74 | 204 | 0.0 | 0.0 | 0.00 | 0.00 | 0.00 | 79 | 1008.4 |
| 20260504183417 | 74 | 310 | 0.0 | 0.0 | 0.00 | 0.00 | 0.00 | 79 | 1008.3 |
| 20260504182915 | 74 | 278 | 0.0 | 0.0 | 0.00 | 0.41 | 0.41 | 78 | 1008.4 |
| 20260504182411 | 75 | 186 | 0.0 | 0.0 | 0.00 | 0.41 | 0.41 | 78 | 1008.7 |
| 20260504181908 | 75 | 330 | 0.0 | 0.0 | 0.00 | 0.41 | 0.41 | 78 | 1008.7 |
| 20260504181405 | 75 | 271 | 0.0 | 0.0 | 0.00 | 0.41 | 0.41 | 78 | 1008.5 |
| 20260504180904 | 75 | 298 | 0.0 | 0.0 | 0.00 | 0.41 | 0.41 | 77 | 1008.8 |
| 20260504180402 | 75 | 129 | 0.0 | 0.0 | 0.00 | 0.41 | 0.41 | 77 | 1008.8 |
| 20260504175900 | 75 | 309 | 0.0 | 0.0 | 0.00 | 0.41 | 0.41 | 78 | 1009.1 |
| 20260504175356 | 75 | 326 | 0.0 | 0.0 | 0.00 | 0.41 | 0.41 | 77 | 1008.9 |
| 20260504174855 | 76 | 43 | 0.0 | 0.0 | 0.00 | 0.41 | 0.41 | 76 | 1008.8 |
| 20260504174352 | 76 | 309 | 0.0 | 0.0 | 0.00 | 0.41 | 0.41 | 75 | 1008.7 |
| 20260504173849 | 77 | 326 | 0.0 | 0.0 | 0.00 | 0.41 | 0.41 | 73 | 1008.8 |
| 20260504173345 | 77 | 312 | 0.0 | 0.0 | 0.00 | 0.41 | 0.41 | 70 | 1009.0 |
| 20260504172843 | 77 | 156 | 1.0 | 3.0 | 0.00 | 0.41 | 0.41 | 69 | 1008.8 |
| 20260504172339 | 77 | 122 | 2.0 | 5.0 | 0.00 | 0.41 | 0.41 | 69 | 1008.4 |
| 20260504171835 | 77 | 136 | 0.0 | 0.0 | 0.00 | 0.41 | 0.41 | 70 | 1008.3 |
| 20260504171332 | 77 | 219 | 0.0 | 0.0 | 0.00 | 0.41 | 0.41 | 72 | 1008.5 |
| 20260504170830 | 76 | 179 | 0.0 | 0.0 | 0.00 | 0.41 | 0.41 | 72 | 1008.1 |
| 20260504170326 | 76 | 197 | 0.0 | 0.0 | 0.00 | 0.41 | 0.41 | 72 | 1008.2 |
| 20260504160244 | 75 | 156 | 1.0 | 2.0 | 0.00 | 0.41 | 0.41 | 75 | 1008.2 |
| 20260504150710 | 76 | 119 | 0.0 | 0.0 | 0.00 | 0.41 | 0.41 | 75 | 1008.0 |
| 20260504150207 | 76 | 144 | 1.0 | 2.0 | 0.00 | 0.41 | 0.41 | 74 | 1007.8 |
| 20260504141136 | 76 | 121 | 0.0 | 0.0 | 0.00 | 0.41 | 0.41 | 78 | 1007.1 |
| 20260504140633 | 75 | 165 | 3.0 | 6.0 | 0.00 | 0.41 | 0.41 | 79 | 1007.1 |
| 20260504140128 | 74 | 198 | 3.0 | 5.0 | 0.00 | 0.41 | 0.41 | 82 | 1006.9 |
| 20260504130556 | 73 | 110 | 5.0 | 7.0 | 0.05 | 0.37 | 0.37 | 92 | 1005.9 |
| 20260504110444 | 91 | 308 | 0.0 | 0.0 | 0.00 | 0.22 | 0.22 | 46 | 1004.3 |
| 20260504100407 | 91 | 291 | 2.0 | 5.0 | 0.00 | 0.22 | 0.22 | 48 | 1004.6 |
| 20260504081800 | 90 | 306 | 0.0 | 0.0 | 0.00 | 0.22 | 0.22 | 53 | 1006.3 |
| 20260504081256 | 90 | 350 | 0.0 | 1.0 | 0.00 | 0.22 | 0.22 | 53 | 1006.6 |
| 20260504080753 | 91 | 359 | 1.0 | 2.0 | 0.00 | 0.22 | 0.22 | 52 | 1006.7 |
| 20260504080249 | 90 | 66 | 0.0 | 0.0 | 0.00 | 0.22 | 0.22 | 53 | 1006.7 |
| 20260504070217 | 90 | 248 | 0.0 | 0.0 | 0.00 | 0.22 | 0.22 | 58 | 1008.4 |